User: anonymous   Login
Location: Unspecified
(0.0000°N, 0.0000°E)
Time: 11:31:08
(UTC+00:00)
Language:

NOSS 2-2 (D) - Orbit

View from above orbital plane
View from above orbital plane
View from above satellite
View from above satellite

Ground track
Ground track

The orbit data is extracted from the following two-line orbital elements,

1 21808U 91076D   18308.75726533 0.00000100  00000-0  25421-4 0    02
2 21808  63.3375 233.3573 0794000  30.6597 329.3402 13.41214922    06
Epoch (UTC): 04 November 2018 18:10:27
Eccentricity: 0.0794000
inclination: 63.3375°
perigee height: 510 km
apogee height: 1699 km
right ascension of ascending node: 233.3573°
argument of perigee: 30.6597°
revolutions per day: 13.41214922
mean anomaly at epoch: 329.3402°
orbit number at epoch: 0

The dashed part of the orbit path shows where the satellite is in the earth's shadow,  

DLR